sat.trackr.live / text

‹ back to catalog

ONEWEB-0523

NORAD 54141 · 2022-138AE

PAYLOAD ACTIVE UNKNOWN

§ Identity

Operator
Country
UK
Launch date
2022-10-22
Launch site
SRILR
Launch vehicle
Mass (kg)
RCS (m²)

Purposes: comms

External: N2YO · Heavens-Above · Gunter

§ Orbital elements

Epoch: 2026-09-19T17:24:26.507520Z

Period
109.03 min
Inclination
87.9143°
Eccentricity
0.0001908
Mean motion
13.20772944 rev/d
Perigee alt
1,180.3 km
Apogee alt
1,183.2 km
Semi-major
7,559.9 km
B*
3.1345e-4
RAAN
255.5819°
Arg perigee
111.6565°
Mean anomaly
248.4772°
Rev number
19,178

§ Raw data

ONEWEB-05231 54141U 22138AE  26262.72530680  .00000140  00000+0  31345-3 0  99932 54141  87.9143 255.5819 0001908 111.6565 248.4772 13.20772944191786

JSON: /api/v1/satellites/54141 · /tle

For live sub-satellite position, see the globe view (requires WebGL).

§ Visibility from observer

Set your observer location to see the next 7 days of passes ≥ 10°. The values pass through the URL so the page stays shareable.

No JS? Fill the form by hand. The geolocation button needs JavaScript.